Time,TemperatureF,DewpointF,PressureIn,WindDirection,WindDirectionDegrees,WindSpeedMPH,WindSpeedGustMPH,Humidity,HourlyPrecipIn,Conditions,Clouds,dailyrainin,SoftwareType,DateUTC
2013-02-04 00:00:00,25.7,17.9,29.77,South,174,1.0,2.0,72,0.00,,SKC,0.03,VWS V14.01,2013-02-04 05:00:00,
2013-02-04 00:01:00,25.7,17.9,29.77,South,174,0.0,2.0,72,0.00,,SKC,0.03,VWS V14.01,2013-02-04 05:01:00,
2013-02-04 00:03:00,25.7,17.9,29.77,South,174,0.0,0.0,72,0.00,,SKC,0.00,VWS V14.01,2013-02-04 05:03:00,
2013-02-04 00:08:00,25.6,17.8,29.76,South,174,0.0,2.0,72,0.00,,SKC,0.00,VWS V14.01,2013-02-04 05:08:00,
2013-02-04 00:10:00,25.6,17.8,29.76,South,180,0.0,2.0,72,0.00,,SKC,0.00,VWS V14.01,2013-02-04 05:10:00,
2013-02-04 00:20:00,25.4,17.6,29.76,South,180,0.0,1.0,72,0.00,,SKC,0.00,VWS V14.01,2013-02-04 05:20:00,
2013-02-04 00:30:00,25.3,17.5,29.76,South,180,0.0,1.0,72,0.00,,SKC,0.00,VWS V14.01,2013-02-04 05:30:00,
2013-02-04 00:40:00,25.0,17.3,29.76,South,180,0.0,0.0,72,0.00,,SKC,0.00,VWS V14.01,2013-02-04 05:40:00,
2013-02-04 00:50:00,24.8,17.4,29.75,South,180,0.0,0.0,73,0.00,,SKC,0.00,VWS V14.01,2013-02-04 05:50:00,
2013-02-04 01:00:00,24.5,17.1,29.76,South,180,0.0,0.0,73,0.00,,SKC,0.00,VWS V14.01,2013-02-04 06:00:00,
2013-02-04 01:10:00,24.4,17.0,29.76,South,180,0.0,0.0,73,0.00,,SKC,0.00,VWS V14.01,2013-02-04 06:10:00,
2013-02-04 01:20:00,24.1,16.7,29.76,South,180,0.0,0.0,73,0.00,,SKC,0.00,VWS V14.01,2013-02-04 06:20:00,
2013-02-04 01:30:00,23.9,16.5,29.76,South,180,0.0,0.0,73,0.00,,SKC,0.00,VWS V14.01,2013-02-04 06:30:00,
2013-02-04 01:40:00,23.6,16.2,29.76,South,180,0.0,0.0,73,0.00,,SKC,0.00,VWS V14.01,2013-02-04 06:40:00,
2013-02-04 01:50:00,23.3,15.9,29.76,South,180,0.0,0.0,73,0.00,,SKC,0.00,VWS V14.01,2013-02-04 06:50:00,
2013-02-04 02:00:00,23.0,16.0,29.76,South,180,0.0,0.0,74,0.00,,SKC,0.00,VWS V14.01,2013-02-04 07:00:00,
2013-02-04 02:10:00,22.9,16.2,29.76,South,180,0.0,0.0,75,0.00,,SKC,0.00,VWS V14.01,2013-02-04 07:10:00,
2013-02-04 02:20:00,22.7,16.0,29.76,South,180,0.0,0.0,75,0.00,,SKC,0.00,VWS V14.01,2013-02-04 07:20:00,
2013-02-04 02:30:00,22.7,16.3,29.76,South,180,0.0,0.0,76,0.00,,SKC,0.00,VWS V14.01,2013-02-04 07:30:00,
2013-02-04 02:40:00,22.9,16.5,29.76,South,180,0.0,0.0,76,0.00,,SKC,0.00,VWS V14.01,2013-02-04 07:40:00,
2013-02-04 02:50:00,23.0,16.9,29.75,South,180,0.0,0.0,77,0.00,,SKC,0.00,VWS V14.01,2013-02-04 07:50:00,
2013-02-04 03:00:00,23.2,17.1,29.75,South,180,0.0,0.0,77,0.00,,SKC,0.00,VWS V14.01,2013-02-04 08:00:00,
2013-02-04 03:10:00,23.3,17.5,29.75,South,180,0.0,0.0,78,0.00,,SKC,0.00,VWS V14.01,2013-02-04 08:10:00,
2013-02-04 03:20:00,23.6,17.8,29.75,South,180,0.0,1.0,78,0.00,,SKC,0.00,VWS V14.01,2013-02-04 08:20:00,
2013-02-04 03:30:00,24.1,18.5,29.75,South,180,0.0,2.0,79,0.00,,SKC,0.00,VWS V14.01,2013-02-04 08:30:00,
2013-02-04 03:40:00,24.8,19.5,29.75,South,180,0.0,4.0,80,0.00,,SKC,0.00,VWS V14.01,2013-02-04 08:40:00,
2013-02-04 03:50:00,25.6,20.3,29.75,South,180,0.0,3.0,80,0.00,,SKC,0.00,VWS V14.01,2013-02-04 08:50:00,
2013-02-04 04:00:00,26.0,20.7,29.75,South,180,0.0,1.0,80,0.00,,SKC,0.00,VWS V14.01,2013-02-04 09:00:00,
2013-02-04 04:10:00,26.4,21.4,29.76,South,180,0.0,2.0,81,0.00,,SKC,0.00,VWS V14.01,2013-02-04 09:10:00,
2013-02-04 04:20:00,26.7,21.7,29.76,South,180,0.0,2.0,81,0.00,,SKC,0.00,VWS V14.01,2013-02-04 09:20:00,
2013-02-04 04:30:00,27.0,22.0,29.76,South,180,0.0,1.0,81,0.00,,SKC,0.00,VWS V14.01,2013-02-04 09:30:00,
2013-02-04 04:40:00,27.3,22.5,29.77,South,180,0.0,4.0,82,0.00,,SKC,0.00,VWS V14.01,2013-02-04 09:40:00,
2013-02-04 04:50:00,27.5,22.7,29.77,WSW,248,1.0,7.0,82,0.00,,SKC,0.00,VWS V14.01,2013-02-04 09:50:00,
2013-02-04 05:00:00,27.6,22.8,29.78,WSW,248,1.0,13.0,82,0.00,,SKC,0.00,VWS V14.01,2013-02-04 10:00:00,
2013-02-04 05:10:00,27.6,22.8,29.78,WSW,248,2.0,7.0,82,0.00,,SKC,0.00,VWS V14.01,2013-02-04 10:10:00,
2013-02-04 05:20:00,27.6,22.8,29.78,West,270,1.0,6.0,82,0.00,,SKC,0.00,VWS V14.01,2013-02-04 10:20:00,
2013-02-04 05:30:00,27.6,22.8,29.79,West,270,2.0,8.0,82,0.00,,SKC,0.00,VWS V14.01,2013-02-04 10:30:00,
2013-02-04 05:40:00,27.5,22.7,29.80,West,270,2.0,5.0,82,0.00,,SKC,0.00,VWS V14.01,2013-02-04 10:40:00,
2013-02-04 05:50:00,27.5,22.7,29.80,WNW,292,2.0,7.0,82,0.00,,SKC,0.00,VWS V14.01,2013-02-04 10:50:00,
2013-02-04 06:00:00,27.3,22.5,29.80,SW,225,1.0,7.0,82,0.00,,SKC,0.00,VWS V14.01,2013-02-04 11:00:00,
2013-02-04 06:10:00,27.2,22.1,29.81,West,270,2.0,7.0,81,0.00,,SKC,0.00,VWS V14.01,2013-02-04 11:10:00,
2013-02-04 06:20:00,27.0,22.0,29.82,West,270,1.0,6.0,81,0.00,,SKC,0.00,VWS V14.01,2013-02-04 11:20:00,
2013-02-04 06:30:00,26.7,21.4,29.82,WSW,248,2.0,10.0,80,0.00,,SKC,0.00,VWS V14.01,2013-02-04 11:30:00,
2013-02-04 06:40:00,26.6,21.0,29.83,SW,225,2.0,8.0,79,0.00,,SKC,0.00,VWS V14.01,2013-02-04 11:40:00,
2013-02-04 06:50:00,26.4,20.8,29.83,West,270,1.0,5.0,79,0.00,,SKC,0.00,VWS V14.01,2013-02-04 11:50:00,
2013-02-04 07:00:00,26.3,20.7,29.83,SW,225,2.0,7.0,79,0.00,,SKC,0.00,VWS V14.01,2013-02-04 12:00:00,
2013-02-04 07:10:00,26.3,20.4,29.83,West,270,2.0,8.0,78,0.00,,SKC,0.00,VWS V14.01,2013-02-04 12:10:00,
2013-02-04 07:20:00,26.1,20.2,29.84,SW,225,1.0,7.0,78,0.00,,SKC,0.00,VWS V14.01,2013-02-04 12:20:00,
2013-02-04 07:30:00,25.8,19.6,29.84,West,270,2.0,10.0,77,0.00,,SKC,0.00,VWS V14.01,2013-02-04 12:30:00,
2013-02-04 07:40:00,25.7,18.9,29.85,WSW,248,2.0,8.0,75,0.00,,SKC,0.00,VWS V14.01,2013-02-04 12:40:00,
2013-02-04 07:50:00,25.7,18.6,29.85,SE,135,3.0,9.0,74,0.00,,SKC,0.00,VWS V14.01,2013-02-04 12:50:00,
2013-02-04 08:00:00,26.1,18.6,29.86,SW,225,2.0,8.0,73,0.00,,SKC,0.00,VWS V14.01,2013-02-04 13:00:00,
2013-02-04 08:10:00,26.3,18.2,29.86,WSW,248,2.0,8.0,71,0.00,,SKC,0.00,VWS V14.01,2013-02-04 13:10:00,
2013-02-04 08:20:00,26.3,16.9,29.86,WSW,248,2.0,9.0,67,0.00,,SKC,0.00,VWS V14.01,2013-02-04 13:20:00,
2013-02-04 08:30:00,26.1,16.0,29.86,SSW,202,2.0,6.0,65,0.00,,SKC,0.00,VWS V14.01,2013-02-04 13:30:00,
2013-02-04 08:40:00,26.1,16.0,29.87,SSW,202,2.0,7.0,65,0.00,,SKC,0.00,VWS V14.01,2013-02-04 13:40:00,
2013-02-04 08:50:00,26.6,16.1,29.87,West,270,3.0,11.0,64,0.00,,SKC,0.00,VWS V14.01,2013-02-04 13:50:00,
2013-02-04 09:00:00,26.9,15.3,29.87,West,270,3.0,16.0,61,0.00,,SKC,0.00,VWS V14.01,2013-02-04 14:00:00,
2013-02-04 09:10:00,26.7,15.1,29.88,West,270,3.0,10.0,61,0.00,,SKC,0.00,VWS V14.01,2013-02-04 14:10:00,
2013-02-04 09:20:00,26.9,14.9,29.88,West,270,3.0,11.0,60,0.00,,SKC,0.00,VWS V14.01,2013-02-04 14:20:00,
2013-02-04 09:30:00,27.0,14.6,29.88,WSW,248,2.0,11.0,59,0.00,,SKC,0.00,VWS V14.01,2013-02-04 14:30:00,
2013-02-04 09:40:00,27.3,14.5,29.88,West,270,3.0,10.0,58,0.00,,SKC,0.00,VWS V14.01,2013-02-04 14:40:00,
2013-02-04 09:50:00,27.3,14.9,29.89,WSW,248,3.0,11.0,59,0.00,,SKC,0.00,VWS V14.01,2013-02-04 14:50:00,
2013-02-04 10:10:00,27.5,15.1,29.88,West,266,2.0,8.0,59,0.00,,SKC,0.00,VWS V14.01,2013-02-04 15:10:00,
2013-02-04 10:15:00,27.5,14.7,29.88,ENE,61,3.0,6.0,58,0.00,,SKC,0.00,VWS V14.01,2013-02-04 15:15:00,
2013-02-04 10:20:00,27.8,15.0,29.88,WSW,253,4.0,9.0,58,0.00,,SKC,0.00,VWS V14.01,2013-02-04 15:20:00,
2013-02-04 10:25:00,27.9,15.1,29.88,WSW,252,4.0,4.0,58,0.00,,SKC,0.00,VWS V14.01,2013-02-04 15:25:00,
2013-02-04 10:30:00,28.1,15.6,29.88,WSW,257,3.0,6.0,59,0.00,,SKC,0.00,VWS V14.01,2013-02-04 15:30:00,
2013-02-04 10:35:00,28.2,14.1,29.88,WSW,257,8.0,8.0,55,0.00,,SKC,0.00,VWS V14.01,2013-02-04 15:35:00,
2013-02-04 10:40:00,28.2,14.5,29.88,WNW,290,5.0,13.0,56,0.00,,SKC,0.00,VWS V14.01,2013-02-04 15:40:00,
2013-02-04 10:45:00,28.4,14.7,29.88,WSW,242,2.0,8.0,56,0.00,,SKC,0.00,VWS V14.01,2013-02-04 15:45:00,
2013-02-04 10:50:00,28.4,13.9,29.88,WSW,248,2.0,10.0,54,0.00,,SKC,0.00,VWS V14.01,2013-02-04 15:50:00,
2013-02-04 10:51:00,28.4,13.9,29.88,West,271,1.0,10.0,54,0.00,,SKC,0.00,VWS V14.01,2013-02-04 15:51:00,
2013-02-04 10:56:00,28.4,13.9,29.88,SW,229,1.0,11.0,54,0.00,,SKC,0.00,VWS V14.01,2013-02-04 15:56:00,
2013-02-04 11:00:00,28.4,13.9,29.88,SW,235,5.0,11.0,54,0.00,,SKC,0.00,VWS V14.01,2013-02-04 16:00:00,
2013-02-04 11:01:00,28.4,13.9,29.88,West,275,0.0,11.0,54,0.00,,SKC,0.00,VWS V14.01,2013-02-04 16:01:00,
2013-02-04 11:06:00,28.5,14.0,29.88,SW,225,1.0,12.0,54,0.00,,SKC,0.00,VWS V14.01,2013-02-04 16:06:00,
2013-02-04 11:10:00,29.0,14.4,29.88,West,264,2.0,12.0,54,0.00,,SKC,0.00,VWS V14.01,2013-02-04 16:10:00,
2013-02-04 11:11:00,29.0,14.4,29.88,NNW,342,3.0,12.0,54,0.00,,SKC,0.00,VWS V14.01,2013-02-04 16:11:00,
2013-02-04 11:16:00,29.1,14.1,29.88,WNW,292,8.0,14.0,53,0.00,,SKC,0.00,VWS V14.01,2013-02-04 16:16:00,
2013-02-04 11:20:00,29.1,14.5,29.87,WNW,296,3.0,15.0,54,0.00,,SKC,0.00,VWS V14.01,2013-02-04 16:20:00,
2013-02-04 11:21:00,29.1,14.1,29.87,West,271,2.0,15.0,53,0.00,,SKC,0.00,VWS V14.01,2013-02-04 16:21:00,
2013-02-04 11:26:00,29.4,14.4,29.88,West,265,7.0,7.0,53,0.00,,SKC,0.00,VWS V14.01,2013-02-04 16:26:00,
2013-02-04 11:30:00,29.1,14.1,29.87,West,273,8.0,11.0,53,0.00,,SKC,0.00,VWS V14.01,2013-02-04 16:30:00,
2013-02-04 11:31:00,29.1,14.1,29.87,SSE,160,4.0,11.0,53,0.00,,SKC,0.00,VWS V14.01,2013-02-04 16:31:00,
2013-02-04 11:36:00,29.0,14.0,29.88,SSW,198,4.0,8.0,53,0.00,,SKC,0.00,VWS V14.01,2013-02-04 16:36:00,
2013-02-04 11:40:00,29.0,14.0,29.87,WSW,249,3.0,8.0,53,0.00,,SKC,0.00,VWS V14.01,2013-02-04 16:40:00,
2013-02-04 11:41:00,29.0,14.0,29.87,WSW,249,3.0,8.0,53,0.00,,SKC,0.00,VWS V14.01,2013-02-04 16:41:00,
2013-02-04 11:46:00,29.0,13.6,29.87,West,264,3.0,9.0,52,0.00,,SKC,0.00,VWS V14.01,2013-02-04 16:46:00,
2013-02-04 11:50:00,29.0,13.6,29.87,SSW,209,5.0,10.0,52,0.00,,SKC,0.00,VWS V14.01,2013-02-04 16:50:00,
2013-02-04 11:51:00,29.0,13.6,29.86,SSW,213,2.0,5.0,52,0.00,,SKC,0.00,VWS V14.01,2013-02-04 16:51:00,
2013-02-04 11:56:00,29.0,13.6,29.86,SW,234,0.0,8.0,52,0.00,,SKC,0.00,VWS V14.01,2013-02-04 16:56:00,
2013-02-04 12:00:00,29.0,13.6,29.86,WNW,291,3.0,9.0,52,0.00,,SKC,0.00,VWS V14.01,2013-02-04 17:00:00,
2013-02-04 12:01:00,29.0,13.6,29.86,WNW,291,1.0,3.0,52,0.00,,SKC,0.00,VWS V14.01,2013-02-04 17:01:00,
2013-02-04 12:07:00,29.1,13.7,29.86,West,259,2.0,8.0,52,0.00,,SKC,0.00,VWS V14.01,2013-02-04 17:07:00,
2013-02-04 12:10:00,29.4,13.1,29.86,West,269,3.0,8.0,50,0.00,,SKC,0.00,VWS V14.01,2013-02-04 17:10:00,
2013-02-04 12:12:00,29.4,13.1,29.86,West,265,5.0,6.0,50,0.00,,SKC,0.00,VWS V14.01,2013-02-04 17:12:00,
2013-02-04 12:17:00,29.3,13.0,29.86,SE,138,2.0,12.0,50,0.00,,SKC,0.00,VWS V14.01,2013-02-04 17:17:00,
2013-02-04 12:20:00,29.1,12.8,29.86,West,263,2.0,12.0,50,0.00,,SKC,0.00,VWS V14.01,2013-02-04 17:20:00,
2013-02-04 12:22:00,29.1,12.8,29.86,West,264,3.0,4.0,50,0.00,,SKC,0.00,VWS V14.01,2013-02-04 17:22:00,
2013-02-04 12:27:00,29.7,13.4,29.86,West,279,3.0,10.0,50,0.00,,SKC,0.00,VWS V14.01,2013-02-04 17:27:00,
2013-02-04 12:30:00,29.7,12.9,29.86,WSW,249,5.0,10.0,49,0.00,,SKC,0.00,VWS V14.01,2013-02-04 17:30:00,
2013-02-04 12:32:00,29.7,12.9,29.86,WSW,257,3.0,9.0,49,0.00,,SKC,0.00,VWS V14.01,2013-02-04 17:32:00,
2013-02-04 12:37:00,30.3,14.4,29.85,West,274,3.0,9.0,51,0.00,,SKC,0.00,VWS V14.01,2013-02-04 17:37:00,
2013-02-04 12:40:00,30.6,13.7,29.86,NW,313,2.0,9.0,49,0.00,,SKC,0.00,VWS V14.01,2013-02-04 17:40:00,
2013-02-04 12:42:00,30.6,13.3,29.86,NW,304,3.0,3.0,48,0.00,,SKC,0.00,VWS V14.01,2013-02-04 17:42:00,
2013-02-04 12:47:00,30.7,13.4,29.85,WNW,282,6.0,9.0,48,0.00,,SKC,0.00,VWS V14.01,2013-02-04 17:47:00,
2013-02-04 12:50:00,30.4,13.1,29.85,WSW,257,2.0,9.0,48,0.00,,SKC,0.00,VWS V14.01,2013-02-04 17:50:00,
2013-02-04 12:52:00,30.6,13.7,29.85,West,269,1.0,5.0,49,0.00,,SKC,0.00,VWS V14.01,2013-02-04 17:52:00,
2013-02-04 12:57:00,30.4,12.6,29.85,WSW,237,1.0,11.0,47,0.00,,SKC,0.00,VWS V14.01,2013-02-04 17:57:00,
2013-02-04 13:00:00,30.4,13.1,29.86,SW,223,2.0,11.0,48,0.00,,SKC,0.00,VWS V14.01,2013-02-04 18:00:00,
2013-02-04 13:02:00,30.4,12.6,29.86,NW,316,7.0,7.0,47,0.00,,SKC,0.00,VWS V14.01,2013-02-04 18:02:00,
2013-02-04 13:08:00,30.6,13.7,29.85,WSW,253,0.0,8.0,49,0.00,,SKC,0.00,VWS V14.01,2013-02-04 18:08:00,
2013-02-04 13:10:00,31.0,14.1,29.85,West,275,3.0,10.0,49,0.00,,SKC,0.00,VWS V14.01,2013-02-04 18:10:00,
2013-02-04 13:13:00,31.2,14.3,29.85,SSE,159,4.0,9.0,49,0.00,,SKC,0.00,VWS V14.01,2013-02-04 18:13:00,
2013-02-04 13:18:00,30.9,13.5,29.86,East,91,4.0,10.0,48,0.00,,SKC,0.00,VWS V14.01,2013-02-04 18:18:00,
2013-02-04 13:20:00,30.7,13.4,29.85,West,281,1.0,10.0,48,0.00,,SKC,0.00,VWS V14.01,2013-02-04 18:20:00,
2013-02-04 13:23:00,30.9,14.0,29.85,West,263,5.0,5.0,49,0.00,,SKC,0.00,VWS V14.01,2013-02-04 18:23:00,
2013-02-04 13:28:00,30.7,13.4,29.85,South,169,0.0,9.0,48,0.00,,SKC,0.00,VWS V14.01,2013-02-04 18:28:00,
2013-02-04 13:30:00,30.7,13.8,29.86,West,270,1.0,9.0,49,0.00,,SKC,0.00,VWS V14.01,2013-02-04 18:30:00,
2013-02-04 13:33:00,30.7,13.4,29.85,WSW,246,4.0,12.0,48,0.00,,SKC,0.00,VWS V14.01,2013-02-04 18:33:00,
2013-02-04 13:41:00,30.0,13.2,29.85,WSW,252,2.0,2.0,49,0.00,,SKC,0.00,VWS V14.01,2013-02-04 18:41:00,
2013-02-04 13:47:00,30.3,13.4,29.86,WNW,288,2.0,6.0,49,0.00,,SKC,0.00,VWS V14.01,2013-02-04 18:47:00,
2013-02-04 13:52:00,30.6,13.3,29.85,West,267,3.0,13.0,48,0.00,,SKC,0.00,VWS V14.01,2013-02-04 18:52:00,
2013-02-04 13:57:00,31.0,13.6,29.86,West,259,3.0,13.0,48,0.00,,SKC,0.00,VWS V14.01,2013-02-04 18:57:00,
2013-02-04 14:02:00,31.5,12.6,29.85,WSW,250,3.0,7.0,45,0.00,,SKC,0.00,VWS V14.01,2013-02-04 19:02:00,
2013-02-04 14:07:00,31.5,13.1,29.85,West,273,2.0,8.0,46,0.00,,SKC,0.00,VWS V14.01,2013-02-04 19:07:00,
2013-02-04 14:12:00,31.5,13.6,29.85,West,281,4.0,7.0,47,0.00,,SKC,0.00,VWS V14.01,2013-02-04 19:12:00,
2013-02-04 14:17:00,31.5,13.1,29.85,WSW,242,2.0,11.0,46,0.00,,SKC,0.00,VWS V14.01,2013-02-04 19:17:00,
2013-02-04 14:22:00,30.7,12.9,29.85,West,266,3.0,8.0,47,0.00,,SKC,0.00,VWS V14.01,2013-02-04 19:22:00,
2013-02-04 14:27:00,30.9,13.1,29.85,WSW,252,2.0,10.0,47,0.00,,SKC,0.00,VWS V14.01,2013-02-04 19:27:00,
2013-02-04 14:32:00,30.6,13.3,29.86,West,261,5.0,7.0,48,0.00,,SKC,0.00,VWS V14.01,2013-02-04 19:32:00,
2013-02-04 14:37:00,30.4,12.6,29.85,WSW,257,2.0,11.0,47,0.00,,SKC,0.00,VWS V14.01,2013-02-04 19:37:00,
2013-02-04 14:42:00,30.6,12.8,29.86,West,264,2.0,11.0,47,0.00,,SKC,0.00,VWS V14.01,2013-02-04 19:42:00,
2013-02-04 14:48:00,30.4,12.6,29.86,West,260,3.0,11.0,47,0.00,,SKC,0.00,VWS V14.01,2013-02-04 19:48:00,
2013-02-04 14:53:00,30.4,13.1,29.86,West,261,1.0,5.0,48,0.00,,SKC,0.00,VWS V14.01,2013-02-04 19:53:00,
2013-02-04 14:58:00,30.7,11.9,29.86,WSW,257,0.0,9.0,45,0.00,,SKC,0.00,VWS V14.01,2013-02-04 19:58:00,
2013-02-04 15:03:00,30.4,12.1,29.86,West,276,0.0,7.0,46,0.00,,SKC,0.00,VWS V14.01,2013-02-04 20:03:00,
2013-02-04 15:08:00,30.4,12.1,29.86,West,263,0.0,9.0,46,0.00,,SKC,0.00,VWS V14.01,2013-02-04 20:08:00,
2013-02-04 15:13:00,30.1,11.8,29.86,West,264,0.0,6.0,46,0.00,,SKC,0.00,VWS V14.01,2013-02-04 20:13:00,
2013-02-04 15:18:00,30.0,12.2,29.86,West,264,2.0,10.0,47,0.00,,SKC,0.00,VWS V14.01,2013-02-04 20:18:00,
2013-02-04 15:23:00,29.8,13.0,29.86,WSW,241,2.0,9.0,49,0.00,,SKC,0.00,VWS V14.01,2013-02-04 20:23:00,
2013-02-04 15:28:00,30.0,12.7,29.85,West,263,0.0,9.0,48,0.00,,SKC,0.00,VWS V14.01,2013-02-04 20:28:00,
2013-02-04 15:33:00,30.3,13.4,29.85,WSW,256,1.0,5.0,49,0.00,,SKC,0.00,VWS V14.01,2013-02-04 20:33:00,
2013-02-04 15:38:00,30.1,12.3,29.85,West,277,1.0,9.0,47,0.00,,SKC,0.00,VWS V14.01,2013-02-04 20:38:00,
2013-02-04 15:43:00,30.1,12.8,29.85,West,261,5.0,8.0,48,0.00,,SKC,0.00,VWS V14.01,2013-02-04 20:43:00,
2013-02-04 15:48:00,30.1,12.8,29.85,WNW,288,1.0,8.0,48,0.00,,SKC,0.00,VWS V14.01,2013-02-04 20:48:00,
2013-02-04 15:53:00,30.1,12.3,29.85,West,263,3.0,15.0,47,0.00,,SKC,0.00,VWS V14.01,2013-02-04 20:53:00,
2013-02-04 15:58:00,30.1,12.3,29.85,WSW,256,2.0,15.0,47,0.00,,SKC,0.00,VWS V14.01,2013-02-04 20:58:00,
2013-02-04 16:03:00,30.0,12.7,29.85,West,259,4.0,5.0,48,0.00,,SKC,0.00,VWS V14.01,2013-02-04 21:03:00,
2013-02-04 16:09:00,30.0,12.7,29.84,WNW,303,1.0,9.0,48,0.00,,SKC,0.00,VWS V14.01,2013-02-04 21:09:00,
2013-02-04 16:14:00,29.8,12.0,29.85,WSW,256,1.0,3.0,47,0.00,,SKC,0.00,VWS V14.01,2013-02-04 21:14:00,
2013-02-04 16:19:00,29.5,11.8,29.85,WSW,256,1.0,7.0,47,0.00,,SKC,0.00,VWS V14.01,2013-02-04 21:19:00,
2013-02-04 16:24:00,29.4,12.1,29.85,West,269,2.0,12.0,48,0.00,,SKC,0.00,VWS V14.01,2013-02-04 21:24:00,
2013-02-04 16:29:00,29.3,12.1,29.85,West,279,1.0,12.0,48,0.00,,SKC,0.00,VWS V14.01,2013-02-04 21:29:00,
2013-02-04 16:34:00,29.1,12.3,29.85,WNW,288,1.0,5.0,49,0.00,,SKC,0.00,VWS V14.01,2013-02-04 21:34:00,
2013-02-04 16:39:00,29.0,12.2,29.85,WSW,254,1.0,6.0,49,0.00,,SKC,0.00,VWS V14.01,2013-02-04 21:39:00,
2013-02-04 16:44:00,29.0,12.7,29.86,West,261,3.0,6.0,50,0.00,,SKC,0.00,VWS V14.01,2013-02-04 21:44:00,
2013-02-04 16:49:00,28.8,12.5,29.86,WNW,292,6.0,7.0,50,0.00,,SKC,0.00,VWS V14.01,2013-02-04 21:49:00,
2013-02-04 16:54:00,28.7,12.4,29.86,West,261,2.0,4.0,50,0.00,,SKC,0.00,VWS V14.01,2013-02-04 21:54:00,
2013-02-04 16:59:00,28.7,12.4,29.87,WNW,284,1.0,6.0,50,0.00,,SKC,0.00,VWS V14.01,2013-02-04 21:59:00,
2013-02-04 17:04:00,28.5,12.7,29.86,WNW,292,0.0,6.0,51,0.00,,SKC,0.00,VWS V14.01,2013-02-04 22:04:00,
2013-02-04 17:09:00,28.4,12.6,29.87,WNW,292,3.0,9.0,51,0.00,,SKC,0.00,VWS V14.01,2013-02-04 22:09:00,
2013-02-04 17:15:00,28.4,13.0,29.87,West,279,1.0,3.0,52,0.00,,SKC,0.00,VWS V14.01,2013-02-04 22:15:00,
2013-02-04 17:20:00,28.2,12.9,29.88,WNW,288,0.0,4.0,52,0.00,,SKC,0.00,VWS V14.01,2013-02-04 22:20:00,
2013-02-04 17:25:00,28.2,12.9,29.88,WNW,292,1.0,7.0,52,0.00,,SKC,0.00,VWS V14.01,2013-02-04 22:25:00,
2013-02-04 17:30:00,28.2,12.4,29.89,WNW,290,4.0,7.0,51,0.00,,SKC,0.00,VWS V14.01,2013-02-04 22:30:00,
2013-02-04 17:35:00,28.1,12.8,29.89,NW,313,0.0,9.0,52,0.00,,SKC,0.00,VWS V14.01,2013-02-04 22:35:00,
2013-02-04 17:40:00,27.9,12.6,29.89,WSW,240,2.0,9.0,52,0.00,,SKC,0.00,VWS V14.01,2013-02-04 22:40:00,
2013-02-04 17:45:00,27.9,12.6,29.89,West,277,0.0,2.0,52,0.00,,SKC,0.00,VWS V14.01,2013-02-04 22:45:00,
2013-02-04 17:50:00,27.8,12.5,29.89,WNW,283,2.0,5.0,52,0.00,,SKC,0.00,VWS V14.01,2013-02-04 22:50:00,
2013-02-04 17:55:00,27.8,12.5,29.89,West,267,0.0,7.0,52,0.00,,SKC,0.00,VWS V14.01,2013-02-04 22:55:00,
2013-02-04 18:00:00,27.8,12.5,29.89,WNW,287,4.0,9.0,52,0.00,,SKC,0.00,VWS V14.01,2013-02-04 23:00:00,
2013-02-04 18:05:00,27.8,12.5,29.90,WNW,284,2.0,6.0,52,0.00,,SKC,0.00,VWS V14.01,2013-02-04 23:05:00,
2013-02-04 18:11:00,27.8,12.5,29.90,West,276,0.0,10.0,52,0.00,,SKC,0.00,VWS V14.01,2013-02-04 23:11:00,
2013-02-04 18:16:00,27.8,12.5,29.90,West,279,1.0,7.0,52,0.00,,SKC,0.00,VWS V14.01,2013-02-04 23:16:00,
2013-02-04 18:21:00,27.8,12.5,29.90,WNW,283,3.0,7.0,52,0.00,,SKC,0.00,VWS V14.01,2013-02-04 23:21:00,
2013-02-04 18:26:00,27.8,12.9,29.90,WSW,250,1.0,5.0,53,0.00,,SKC,0.00,VWS V14.01,2013-02-04 23:26:00,
2013-02-04 18:31:00,27.8,12.9,29.90,West,272,1.0,5.0,53,0.00,,SKC,0.00,VWS V14.01,2013-02-04 23:31:00,
2013-02-04 18:36:00,27.8,12.9,29.91,West,274,0.0,5.0,53,0.00,,SKC,0.00,VWS V14.01,2013-02-04 23:36:00,
2013-02-04 18:41:00,27.8,13.3,29.91,West,270,3.0,5.0,54,0.00,,SKC,0.00,VWS V14.01,2013-02-04 23:41:00,
2013-02-04 18:46:00,27.6,12.7,29.91,West,277,0.0,7.0,53,0.00,,SKC,0.00,VWS V14.01,2013-02-04 23:46:00,
2013-02-04 18:51:00,27.6,12.7,29.91,West,277,0.0,7.0,53,0.00,,SKC,0.00,VWS V14.01,2013-02-04 23:51:00,
2013-02-04 18:56:00,27.6,12.7,29.91,West,259,1.0,4.0,53,0.00,,SKC,0.00,VWS V14.01,2013-02-04 23:56:00,
2013-02-04 19:01:00,27.6,12.7,29.91,West,261,1.0,4.0,53,0.00,,SKC,0.00,VWS V14.01,2013-02-05 00:01:00,
2013-02-04 19:06:00,27.5,12.6,29.92,West,271,2.0,6.0,53,0.00,,SKC,0.00,VWS V14.01,2013-02-05 00:06:00,
2013-02-04 19:11:00,27.6,12.3,29.92,WNW,283,4.0,4.0,52,0.00,,SKC,0.00,VWS V14.01,2013-02-05 00:11:00,
2013-02-04 19:17:00,27.8,12.0,29.92,West,280,1.0,6.0,51,0.00,,SKC,0.00,VWS V14.01,2013-02-05 00:17:00,
2013-02-04 19:22:00,27.9,12.1,29.92,SW,227,0.0,1.0,51,0.00,,SKC,0.00,VWS V14.01,2013-02-05 00:22:00,
2013-02-04 19:27:00,27.9,12.6,29.92,SW,234,0.0,3.0,52,0.00,,SKC,0.00,VWS V14.01,2013-02-05 00:27:00,
2013-02-04 19:32:00,27.9,12.6,29.92,WSW,237,1.0,4.0,52,0.00,,SKC,0.00,VWS V14.01,2013-02-05 00:32:00,
2013-02-04 19:37:00,27.8,12.9,29.93,WSW,237,0.0,4.0,53,0.00,,SKC,0.00,VWS V14.01,2013-02-05 00:37:00,
2013-02-04 19:42:00,27.6,13.1,29.92,WSW,237,0.0,1.0,54,0.00,,SKC,0.00,VWS V14.01,2013-02-05 00:42:00,
2013-02-04 19:47:00,27.6,13.1,29.93,WSW,238,1.0,3.0,54,0.00,,SKC,0.00,VWS V14.01,2013-02-05 00:47:00,
2013-02-04 19:52:00,27.5,13.1,29.93,West,278,0.0,2.0,54,0.00,,SKC,0.00,VWS V14.01,2013-02-05 00:52:00,
2013-02-04 19:57:00,27.3,12.9,29.93,West,278,4.0,6.0,54,0.00,,SKC,0.00,VWS V14.01,2013-02-05 00:57:00,
2013-02-04 20:02:00,27.3,12.9,29.93,West,280,1.0,7.0,54,0.00,,SKC,0.00,VWS V14.01,2013-02-05 01:02:00,
2013-02-04 20:07:00,27.2,12.8,29.93,West,280,1.0,7.0,54,0.00,,SKC,0.00,VWS V14.01,2013-02-05 01:07:00,
2013-02-04 20:13:00,27.2,13.2,29.93,West,280,0.0,2.0,55,0.00,,SKC,0.00,VWS V14.01,2013-02-05 01:13:00,
2013-02-04 20:18:00,27.2,13.2,29.93,WNW,303,0.0,5.0,55,0.00,,SKC,0.00,VWS V14.01,2013-02-05 01:18:00,
2013-02-04 20:23:00,27.2,13.2,29.93,WNW,288,4.0,5.0,55,0.00,,SKC,0.00,VWS V14.01,2013-02-05 01:23:00,
2013-02-04 20:28:00,27.0,13.0,29.93,WNW,286,2.0,5.0,55,0.00,,SKC,0.00,VWS V14.01,2013-02-05 01:28:00,
2013-02-04 20:33:00,27.0,13.0,29.94,West,271,0.0,3.0,55,0.00,,SKC,0.00,VWS V14.01,2013-02-05 01:33:00,
2013-02-04 20:38:00,27.0,13.0,29.94,West,271,0.0,3.0,55,0.00,,SKC,0.00,VWS V14.01,2013-02-05 01:38:00,
2013-02-04 20:43:00,27.0,13.0,29.94,West,281,0.0,5.0,55,0.00,,SKC,0.00,VWS V14.01,2013-02-05 01:43:00,
2013-02-04 20:48:00,27.0,13.0,29.95,West,281,0.0,5.0,55,0.00,,SKC,0.00,VWS V14.01,2013-02-05 01:48:00,
2013-02-04 20:54:00,27.0,13.0,29.95,West,279,0.0,3.0,55,0.00,,SKC,0.00,VWS V14.01,2013-02-05 01:54:00,
2013-02-04 20:59:00,27.0,13.0,29.95,West,279,0.0,3.0,55,0.00,,SKC,0.00,VWS V14.01,2013-02-05 01:59:00,
2013-02-04 21:04:00,27.0,13.4,29.95,West,279,0.0,1.0,56,0.00,,SKC,0.00,VWS V14.01,2013-02-05 02:04:00,
2013-02-04 21:09:00,27.0,13.4,29.95,West,279,0.0,3.0,56,0.00,,SKC,0.00,VWS V14.01,2013-02-05 02:09:00,
2013-02-04 21:14:00,27.0,13.4,29.95,West,279,0.0,1.0,56,0.00,,SKC,0.00,VWS V14.01,2013-02-05 02:14:00,
2013-02-04 21:19:00,27.0,13.4,29.95,West,279,0.0,2.0,56,0.00,,SKC,0.00,VWS V14.01,2013-02-05 02:19:00,
2013-02-04 21:24:00,27.0,13.4,29.95,West,279,0.0,1.0,56,0.00,,SKC,0.00,VWS V14.01,2013-02-05 02:24:00,
2013-02-04 21:29:00,26.9,13.3,29.95,West,280,0.0,4.0,56,0.00,,SKC,0.00,VWS V14.01,2013-02-05 02:29:00,
2013-02-04 21:34:00,26.9,13.7,29.95,West,281,0.0,4.0,57,0.00,,SKC,0.00,VWS V14.01,2013-02-05 02:34:00,
2013-02-04 21:39:00,26.9,13.7,29.95,WNW,288,0.0,4.0,57,0.00,,SKC,0.00,VWS V14.01,2013-02-05 02:39:00,
2013-02-04 21:45:00,26.9,13.7,29.95,WNW,288,0.0,1.0,57,0.00,,SKC,0.00,VWS V14.01,2013-02-05 02:45:00,
2013-02-04 21:50:00,26.7,13.5,29.95,WNW,288,0.0,1.0,57,0.00,,SKC,0.00,VWS V14.01,2013-02-05 02:50:00,
2013-02-04 21:55:00,26.7,13.5,29.95,WNW,288,0.0,2.0,57,0.00,,SKC,0.00,VWS V14.01,2013-02-05 02:55:00,
2013-02-04 22:00:00,26.7,13.5,29.95,WNW,288,0.0,2.0,57,0.00,,SKC,0.00,VWS V14.01,2013-02-05 03:00:00,
2013-02-04 22:05:00,26.7,13.5,29.94,WNW,286,0.0,2.0,57,0.00,,SKC,0.00,VWS V14.01,2013-02-05 03:05:00,
2013-02-04 22:10:00,26.7,13.5,29.94,WNW,286,0.0,2.0,57,0.00,,SKC,0.00,VWS V14.01,2013-02-05 03:10:00,
2013-02-04 22:15:00,26.6,13.4,29.95,WNW,286,0.0,0.0,57,0.00,,SKC,0.00,VWS V14.01,2013-02-05 03:15:00,
2013-02-04 22:20:00,26.6,13.8,29.94,WNW,286,0.0,1.0,58,0.00,,SKC,0.00,VWS V14.01,2013-02-05 03:20:00,
2013-02-04 22:25:00,26.6,13.8,29.94,WNW,286,0.0,3.0,58,0.00,,SKC,0.00,VWS V14.01,2013-02-05 03:25:00,
2013-02-04 22:30:00,26.6,13.8,29.94,WNW,286,0.0,3.0,58,0.00,,SKC,0.00,VWS V14.01,2013-02-05 03:30:00,
2013-02-04 22:36:00,26.4,13.6,29.94,WNW,286,0.0,3.0,58,0.00,,SKC,0.00,VWS V14.01,2013-02-05 03:36:00,
2013-02-04 22:41:00,26.4,13.6,29.94,WNW,286,1.0,3.0,58,0.00,,SKC,0.00,VWS V14.01,2013-02-05 03:41:00,
2013-02-04 22:46:00,26.4,13.6,29.94,WNW,286,0.0,1.0,58,0.00,,SKC,0.00,VWS V14.01,2013-02-05 03:46:00,
2013-02-04 22:51:00,26.4,13.6,29.94,WNW,286,0.0,1.0,58,0.00,,SKC,0.00,VWS V14.01,2013-02-05 03:51:00,
2013-02-04 22:56:00,26.4,13.6,29.95,WNW,286,0.0,0.0,58,0.00,,SKC,0.00,VWS V14.01,2013-02-05 03:56:00,
2013-02-04 23:01:00,26.4,13.6,29.95,WNW,286,0.0,0.0,58,0.00,,SKC,0.00,VWS V14.01,2013-02-05 04:01:00,
2013-02-04 23:06:00,26.3,13.9,29.95,WNW,286,0.0,2.0,59,0.00,,SKC,0.00,VWS V14.01,2013-02-05 04:06:00,
2013-02-04 23:11:00,26.3,13.9,29.95,WNW,286,0.0,2.0,59,0.00,,SKC,0.00,VWS V14.01,2013-02-05 04:11:00,
2013-02-04 23:16:00,26.3,13.9,29.95,WNW,286,0.0,3.0,59,0.00,,SKC,0.00,VWS V14.01,2013-02-05 04:16:00,
2013-02-04 23:21:00,26.3,13.9,29.95,WNW,286,0.0,0.0,59,0.00,,SKC,0.00,VWS V14.01,2013-02-05 04:21:00,
2013-02-04 23:27:00,26.4,14.0,29.96,WNW,286,1.0,2.0,59,0.00,,SKC,0.00,VWS V14.01,2013-02-05 04:27:00,
2013-02-04 23:32:00,26.4,14.0,29.95,WNW,295,1.0,2.0,59,0.00,,SKC,0.00,VWS V14.01,2013-02-05 04:32:00,
2013-02-04 23:37:00,26.4,13.6,29.96,WNW,294,0.0,3.0,58,0.00,,SKC,0.00,VWS V14.01,2013-02-05 04:37:00,
2013-02-04 23:42:00,26.6,13.8,29.96,WNW,286,0.0,1.0,58,0.00,,SKC,0.00,VWS V14.01,2013-02-05 04:42:00,
2013-02-04 23:47:00,26.6,13.8,29.96,WNW,290,1.0,4.0,58,0.00,,SKC,0.00,VWS V14.01,2013-02-05 04:47:00,
2013-02-04 23:52:00,26.7,13.9,29.96,WNW,292,1.0,2.0,58,0.00,,SKC,0.00,VWS V14.01,2013-02-05 04:52:00,
2013-02-04 23:57:00,26.7,13.5,29.96,WNW,296,0.0,3.0,57,0.00,,SKC,0.00,VWS V14.01,2013-02-05 04:57:00,